IBB5UT GCXO-GCLP

Flight info

Callsign IBB5UT
Flight time 0h 27m
Altitude 11000
Route LALTO
Aircraft E195/M-SDFGRY/LB1

Departure

Time 2026-04-25 16:38
Airport Tenerife Norte-Ciudad de La Laguna Airport (GCXO)

Arrival

Time 2026-04-25 17:06
Airport Gran Canaria Airport (GCLP)
Time Latitude Longitude Altitude Speed Heading
2026-04-25 16:31 28.48540 -16.34630 2069 ft 0 kts 111°
2026-04-25 16:33 28.48539 -16.34627 2069 ft 2 kts 111°
2026-04-25 16:33 28.48517 -16.34559 2065 ft 16 kts 110°
2026-04-25 16:34 28.48474 -16.34413 2058 ft 21 kts 112°
2026-04-25 16:34 28.48421 -16.34272 2052 ft 19 kts 109°
2026-04-25 16:34 28.48364 -16.34101 2046 ft 28 kts 110°
2026-04-25 16:34 28.48293 -16.33887 2039 ft 29 kts 108°
2026-04-25 16:35 28.48221 -16.33669 2036 ft 29 kts 111°
2026-04-25 16:35 28.48148 -16.33451 2034 ft 30 kts 110°
2026-04-25 16:35 28.48074 -16.33227 2026 ft 32 kts 110°
2026-04-25 16:35 28.47992 -16.32979 2018 ft 34 kts 109°
2026-04-25 16:36 28.47910 -16.32730 2011 ft 28 kts 111°
2026-04-25 16:36 28.47891 -16.32674 2013 ft 21 kts 112°
2026-04-25 16:36 28.47788 -16.32535 2013 ft 0 kts 167°
2026-04-25 16:36 28.47786 -16.32534 2013 ft 2 kts 169°
2026-04-25 16:37 28.47753 -16.32547 2012 ft 7 kts 225°
2026-04-25 16:37 28.47760 -16.32626 2013 ft 14 kts 287°
2026-04-25 16:37 28.47769 -16.32654 2013 ft 0 kts 290°
2026-04-25 16:37 28.47790 -16.32719 2015 ft 30 kts 291°
2026-04-25 16:38 28.47944 -16.33180 2029 ft 94 kts 291°
2026-04-25 16:38 28.48250 -16.34079 2062 ft 146 kts 291°
2026-04-25 16:38 28.48640 -16.35263 2419 ft 174 kts 295°
2026-04-25 16:38 28.49079 -16.36568 2869 ft 168 kts 294°
2026-04-25 16:39 28.49528 -16.37853 3035 ft 186 kts 295°
2026-04-25 16:39 28.50024 -16.39251 3625 ft 197 kts 293°
2026-04-25 16:39 28.50527 -16.40739 4241 ft 208 kts 292°
2026-04-25 16:39 28.51081 -16.42358 4691 ft 233 kts 291°
2026-04-25 16:40 28.51677 -16.44109 5423 ft 243 kts 291°
2026-04-25 16:40 28.52314 -16.45938 6206 ft 254 kts 292°
2026-04-25 16:40 28.52971 -16.47840 6953 ft 264 kts 292°
2026-04-25 16:40 28.53648 -16.49810 7751 ft 271 kts 292°
2026-04-25 16:41 28.54444 -16.51737 8578 ft 276 kts 306°
2026-04-25 16:41 28.55923 -16.53156 9448 ft 279 kts 334°
2026-04-25 16:41 28.59782 -16.53320 10720 ft 303 kts 20°
2026-04-25 16:42 28.61595 -16.52009 11277 ft 322 kts 43°
2026-04-25 16:42 28.62829 -16.49800 11306 ft 342 kts 70°
2026-04-25 16:42 28.63071 -16.47087 11331 ft 352 kts 96°
2026-04-25 16:42 28.62254 -16.44542 11328 ft 337 kts 123°
2026-04-25 16:43 28.60756 -16.42599 11326 ft 318 kts 135°
2026-04-25 16:43 28.59246 -16.40847 11298 ft 301 kts 131°
2026-04-25 16:43 28.58126 -16.38923 11247 ft 285 kts 112°
2026-04-25 16:43 28.57364 -16.36907 11203 ft 271 kts 112°
2026-04-25 16:44 28.56632 -16.34983 11107 ft 261 kts 110°
2026-04-25 16:44 28.55948 -16.33071 11095 ft 260 kts 110°
2026-04-25 16:44 28.55266 -16.31142 11097 ft 265 kts 109°
2026-04-25 16:44 28.54586 -16.29117 11146 ft 285 kts 109°
2026-04-25 16:45 28.53892 -16.26960 11204 ft 296 kts 109°
2026-04-25 16:45 28.52917 -16.24873 11235 ft 305 kts 124°
2026-04-25 16:45 28.51705 -16.22880 11293 ft 308 kts 122°
2026-04-25 16:45 28.50535 -16.20817 11054 ft 314 kts 122°
2026-04-25 16:46 28.49367 -16.18761 11066 ft 308 kts 121°
2026-04-25 16:46 28.48223 -16.16707 11060 ft 308 kts 121°
2026-04-25 16:46 28.47078 -16.14642 11063 ft 310 kts 121°
2026-04-25 16:46 28.46316 -16.13267 11063 ft 311 kts 121°
2026-04-25 16:47 28.44784 -16.10487 11059 ft 313 kts 121°
2026-04-25 16:47 28.43589 -16.08306 11055 ft 331 kts 121°
2026-04-25 16:47 28.42353 -16.06063 11060 ft 340 kts 121°
2026-04-25 16:47 28.41089 -16.03762 11057 ft 346 kts 121°
2026-04-25 16:48 28.39811 -16.01419 11047 ft 349 kts 121°
2026-04-25 16:48 28.38525 -15.99061 11044 ft 352 kts 121°
2026-04-25 16:48 28.37233 -15.96700 11041 ft 353 kts 121°
2026-04-25 16:48 28.35941 -15.94335 11034 ft 353 kts 121°
2026-04-25 16:49 28.34643 -15.91961 11039 ft 354 kts 121°
2026-04-25 16:49 28.33348 -15.89588 11035 ft 354 kts 121°
2026-04-25 16:49 28.32047 -15.87210 11035 ft 355 kts 121°
2026-04-25 16:49 28.30745 -15.84830 11029 ft 355 kts 121°
2026-04-25 16:50 28.29433 -15.82435 11025 ft 358 kts 121°
2026-04-25 16:50 28.28124 -15.80042 11023 ft 358 kts 121°
2026-04-25 16:50 28.26815 -15.77655 11019 ft 357 kts 121°
2026-04-25 16:50 28.25504 -15.75264 11011 ft 356 kts 121°
2026-04-25 16:51 28.24200 -15.72887 11016 ft 355 kts 121°
2026-04-25 16:51 28.22894 -15.70496 11018 ft 357 kts 121°
2026-04-25 16:51 28.21587 -15.68111 11006 ft 356 kts 121°
2026-04-25 16:51 28.20718 -15.66526 11011 ft 358 kts 121°
2026-04-25 16:52 28.18954 -15.63327 11018 ft 356 kts 121°
2026-04-25 16:52 28.17662 -15.60982 10915 ft 345 kts 121°
2026-04-25 16:52 28.16429 -15.58743 10885 ft 326 kts 121°
2026-04-25 16:52 28.15260 -15.56622 10841 ft 309 kts 121°
2026-04-25 16:53 28.13113 -15.52731 10712 ft 269 kts 121°
2026-04-25 16:53 28.12156 -15.50992 10531 ft 262 kts 121°
2026-04-25 16:53 28.11180 -15.49219 10254 ft 261 kts 121°
2026-04-25 16:54 28.10233 -15.47508 10020 ft 260 kts 121°
2026-04-25 16:54 28.09274 -15.45768 9770 ft 261 kts 121°
2026-04-25 16:54 28.08305 -15.44013 9440 ft 265 kts 121°
2026-04-25 16:54 28.07257 -15.42284 9050 ft 268 kts 134°
2026-04-25 16:55 28.05711 -15.41113 8664 ft 271 kts 156°
2026-04-25 16:55 28.03979 -15.40259 8301 ft 272 kts 157°
2026-04-25 16:55 28.02248 -15.39387 7934 ft 273 kts 157°
2026-04-25 16:55 28.00513 -15.38507 7577 ft 274 kts 156°
2026-04-25 16:56 27.98774 -15.37630 7212 ft 274 kts 156°
2026-04-25 16:56 27.97036 -15.36739 6856 ft 274 kts 156°
2026-04-25 16:56 27.95299 -15.35850 6502 ft 274 kts 156°
2026-04-25 16:56 27.93562 -15.34960 6129 ft 274 kts 156°
2026-04-25 16:57 27.91823 -15.34070 5749 ft 274 kts 156°
2026-04-25 16:57 27.91237 -15.33770 5622 ft 274 kts 156°
2026-04-25 16:57 27.88344 -15.32293 5008 ft 275 kts 156°
2026-04-25 16:57 27.86595 -15.31416 4620 ft 275 kts 156°
2026-04-25 16:58 27.84846 -15.30542 4250 ft 275 kts 156°
2026-04-25 16:58 27.83097 -15.29686 4017 ft 269 kts 156°
2026-04-25 16:58 27.81420 -15.28882 4008 ft 256 kts 156°
2026-04-25 16:58 27.79804 -15.28100 4011 ft 251 kts 156°
2026-04-25 16:59 27.78135 -15.27560 4019 ft 252 kts 179°
2026-04-25 16:59 27.76387 -15.27710 4003 ft 252 kts 189°
2026-04-25 16:59 27.74757 -15.28327 4028 ft 245 kts 217°
2026-04-25 16:59 27.73639 -15.29747 3792 ft 246 kts 248°
2026-04-25 17:00 27.73350 -15.31578 3362 ft 236 kts 281°
2026-04-25 17:00 27.73763 -15.33360 3002 ft 234 kts 295°
2026-04-25 17:00 27.74391 -15.34963 3236 ft 212 kts 297°
2026-04-25 17:00 27.74983 -15.36543 3125 ft 225 kts 297°
2026-04-25 17:01 27.75602 -15.38162 2807 ft 224 kts 297°
2026-04-25 17:01 27.76206 -15.39775 2517 ft 222 kts 296°
2026-04-25 17:01 27.76804 -15.41375 2422 ft 221 kts 297°
2026-04-25 17:01 27.77410 -15.42980 2442 ft 222 kts 302°
2026-04-25 17:02 27.78433 -15.44207 2435 ft 216 kts 336°
2026-04-25 17:02 27.79832 -15.44528 2433 ft 200 kts
2026-04-25 17:02 27.81118 -15.44050 2383 ft 194 kts 24°
2026-04-25 17:02 27.82333 -15.43417 2084 ft 187 kts 20°
2026-04-25 17:03 27.83554 -15.42949 1851 ft 184 kts 19°
2026-04-25 17:03 27.84718 -15.42438 1602 ft 174 kts 23°
2026-04-25 17:03 27.85785 -15.41935 1390 ft 158 kts 21°
2026-04-25 17:03 27.86779 -15.41507 1162 ft 151 kts 22°
2026-04-25 17:04 27.87748 -15.41082 986 ft 149 kts 23°
2026-04-25 17:04 27.88687 -15.40658 798 ft 142 kts 23°
2026-04-25 17:04 27.89599 -15.40258 609 ft 142 kts 24°
2026-04-25 17:04 27.90505 -15.39850 433 ft 145 kts 23°
2026-04-25 17:05 27.91469 -15.39428 243 ft 150 kts 21°
2026-04-25 17:05 27.93263 -15.38626 54 ft 103 kts 22°
2026-04-25 17:05 27.93783 -15.38426 57 ft 57 kts
2026-04-25 17:06 27.94040 -15.38483 69 ft 14 kts 313°
2026-04-25 17:06 27.94056 -15.38518 72 ft 0 kts 292°
2026-04-25 17:06 27.94062 -15.38537 73 ft 6 kts 289°
2026-04-25 17:07 27.94087 -15.38589 71 ft 8 kts 315°
2026-04-25 17:07 27.94151 -15.38601 72 ft 8 kts 322°
2026-04-25 17:07 27.94166 -15.38648 83 ft 6 kts 290°
2026-04-25 17:07 27.94180 -15.38690 84 ft 3 kts 293°
2026-04-25 17:08 27.94182 -15.38693 84 ft 0 kts 292°